Orbital Elements at Epoch 2459200.5 (2020-Dec-17.0) TDB
Reference: JPL 26 (heliocentric ecliptic J2000)
Element | Value | Uncertainty (1-sigma) | Units |
e | .1176820475492715 | 5.0847e-08 | |
a | 2.787959676815326 | 1.2999e-08 | au |
q | 2.459866873562893 | 1.3862e-07 | au |
i | 4.252162931410702 | 4.0379e-06 | deg |
node | 136.5561060602519 | 5.5803e-05 | deg |
peri | 224.2788610317111 | 5.7899e-05 | deg |
M | 110.6085463383054 | 1.3995e-05 | deg |
tp | 2458678.086558090267 (2019-Jul-13.58655809) | 6.5945e-05 | TDB |
period | 1700.310195853039 4.66 | 1.1892e-05 3.256e-08 | d yr |
n | .2117260726178199 | 1.4808e-09 | deg/d |
Q | 3.116052480067759 | 1.4529e-08 | au |
|
| | Orbit Determination Parameters
Additional Information
|